Flag for Germany Weather past 2 weeks in Ellwangen (Jagst), Baden-Württemberg, Germany

Now
33 °F

Light snow. Overcast.


Feels Like: 30 °F
Forecast: 26 / 35 °F
Wind: 3 mph from Southwest

Location: Stoetten

Current Time: Feb 27, 2015 at 12:48:41 PM

Latest Report: Feb 27, 2015 at 12:00 PM


Visibility: 2 mi

Pressure: 29.89 "Hg

Humidity: 95%

Dew point: 31 °F

Location of Ellwangen (Jagst)Location

Historic Weather in Ellwangen (Jagst) — Graph

°F

Ellwangen (Jagst) temperature yesterday

Maximum temperature yesterday: 40 °F (at 1:00 PM)
Minimum temperature yesterday: 31 °F (at 1:00 AM)
Average temperature yesterday: 36 °F

Past Weeks' High & Low Weather Summary

 TemperatureHumidityPressure
High45 °F (Feb 20, 3:00 PM)100% (Feb 15, 3:00 PM)30.79 "Hg (Feb 15, 3:00 PM)
Low18 °F (Feb 13, 8:00 AM)36% (Feb 21, 1:00 AM)29.54 "Hg (Feb 21, 1:00 PM)
Average29 °F88%30.09 "Hg
* Reported Feb 12 11:00 AM — Feb 27 11:00 AM, Ellwangen (Jagst), Weather by CustomWeather, © 2015

Note: Actual official high and low records may vary slightly from our data, if they occured in-between our weather recording intervals... More about our weather records

Advertising

Ellwangen (Jagst) weather history for previous 24 hours

 ConditionsComfort  
Time TempWeatherWind HumidityBarometerVisibility
11:00 AM
Fri, Feb 27
33 °FLight snow. Overcast.5 mph91%29.88 "Hg5 mi
10:00 AM32 °FLight snow. Overcast.5 mph87%29.87 "Hg11 mi
9:00 AM31 °FOvercast.5 mph79%29.86 "Hg31 mi
8:00 AM32 °FOvercast.3 mph71%29.86 "Hg25 mi
7:00 AM31 °FOvercast.5 mph66%29.86 "Hg25 mi
6:00 AM31 °FOvercast.5 mph67%29.87 "Hg25 mi
5:00 AM29 °FOvercast.3 mph74%29.88 "Hg12 mi
4:00 AM31 °FOvercast.3 mph68%29.88 "Hg15 mi
3:00 AM31 °FOvercast.3 mph70%29.92 "Hg15 mi
2:00 AM31 °FClear.5 mph75%29.95 "Hg11 mi
1:00 AM31 °FClear.5 mph76%29.97 "Hg9 mi
12:00 AM32 °FClear.5 mph73%29.98 "Hg11 mi
11:00 PM
Thu, Feb 26
33 °FClear.5 mph67%30.00 "Hg17 mi
10:00 PM33 °FClear.5 mph65%30.03 "Hg17 mi
9:00 PM33 °FClear.5 mph62%30.05 "Hg37 mi
8:00 PM34 °FClear.3 mph59%30.06 "Hg37 mi
7:00 PM35 °FPassing clouds.3 mph57%30.07 "Hg31 mi
6:00 PM36 °FPassing clouds.2 mph53%30.07 "Hg31 mi
5:00 PM38 °FSunny.3 mph48%30.07 "Hg37 mi
4:00 PM39 °FSunny.3 mph50%30.08 "Hg43 mi
3:00 PM39 °FSunny.3 mph45%30.10 "Hg47 mi
2:00 PM39 °FSunny.3 mph50%30.11 "Hg47 mi
1:00 PM40 °FPassing clouds.3 mph46%30.13 "Hg43 mi
12:00 PM38 °FPassing clouds.3 mph56%30.17 "Hg43 mi
Weather by CustomWeather, © 2015

See weather overviewHow to use our weather pages